Regional Weather Roundup
Issued by NWS

Home | Current Version | Previous Version | Text Only | Print | Product List | Glossary Off
Versions: 1 2 3 4 5 6 7 8 9 10 11 12 13 14 15 16 17 18 19 20 21 22 23 24 25 26 27 28 29 30 31 32 33 34 35 36 37 38 39 40 41 42 43 44 45 46 47 48 49 50

000
ASUS43 KLMK 301502
RWRKY
KENTUCKY REGIONAL WEATHER ROUNDUP
NATIONAL WEATHER SERVICE LOUISVILLE KY
1100 AM EDT SAT AUG 30 2014

NOTE "FAIR" INDICATES FEW OR NO CLOUDS BELOW 12,000 FEET
WITH NO SIGNIFICANT WEATHER AND/OR OBSTRUCTIONS TO VISIBILITY.

KYZ001>023-026-027-061>063-070>075-301600-
WESTERN AND SOUTH CENTRAL KENTUCKY

CITY           SKY/WX    TMP DP  RH WIND       PRES   REMARKS
PADUCAH        CLOUDY    81  70  69 SW6       30.02R
HENDERSON      CLOUDY    77  70  78 CALM      30.04R
OWENSBORO      MOSUNNY   79  68  69 SW9       30.04R
HOPKINSVILLE   NOT AVBL
BOWLING GREEN  PTSUNNY   82  67  60 S12       30.07R
GLASGOW        PTSUNNY   80  66  62 S5        30.09R
$$

KYZ024-025-028>034-038-045-046-053-301600-
NORTH CENTRAL KENTUCKY

CITY           SKY/WX    TMP DP  RH WIND       PRES   REMARKS
LOUISVILLE/SDF CLOUDY    81  66  60 S13       30.06R
LOUISVILLE/LOU PTSUNNY   80  66  62 VRB7      30.07R
FORT KNOX      NOT AVBL
$$

KYZ035>037-039>044-047>052-055>060-089>105-301600-
NORTHEAST KENTUCKY

CITY           SKY/WX    TMP DP  RH WIND       PRES   REMARKS
LEXINGTON      SUNNY     85  68  56 S12       30.10R
COVINGTON      PTSUNNY   81  64  56 SW10      30.07R
FRANKFORT      MOSUNNY   83  66  56 S10       30.08R
$$

KYZ054-064>069-076>088-106>120-301600-
SOUTHEAST KENTUCKY

CITY           SKY/WX    TMP DP  RH WIND       PRES   REMARKS
JACKSON        SUNNY     80  67  64 VRB3      30.16R
LONDON         MOSUNNY   84  65  52 S13       30.15S
SOMERSET       SUNNY     77  64  65 S3        30.14S
MIDDLESBORO    MOSUNNY   82  68  62 CALM      30.17S
MONTICELLO     PTSUNNY   80  69  69 S7        30.14S
$$




USA.gov is the U.S. government's official web portal to all federal, state and local government web resources and services.